Location: Chevoux
(46.3801°N, 4.9476°E)
Time: 03:02:38
(UTC+00:00)

ISS - Pass Details

Date: 05 December 2021
Orbit: 413 x 422 km, 51.6° (Epoch: 22 January)

Event Time Altitude Azimuth Distance (km) Brightness Sun altitude
Rises 17:39:06 0° 295° (WNW) 2,385 0.9 -17.4°
Reaches altitude 10° 17:41:14 10° 292° (WNW) 1,515 -0.1 -17.8°
Maximum altitude 17:44:34 57° 213° (SSW) 504 -3.2 -18.3°
Enters shadow 17:45:55 31° 148° (SSE) 761 -2.7 -18.5°
